This is the latest recevied weather packets stored in our database for station/object WA6ODQ-13. If no packets are shown the sender has not sent any weather packets the latest 1 day(s).
| Time | Temp. | Humidity | Pressure | Rain* | Wind** | Luminosity | Snow |
|---|---|---|---|---|---|---|---|
| 1836274702 | 23.89° C | 72% | 1012.1 hPa | 0 mm | 0 m/s | 0 W/m² | - |
| 1836274555 | 23.33° C | 72% | 1012.3 hPa | 0 mm | 0.45 m/s, 359° | 0 W/m² | - |
| 1836274400 | 23.89° C | 72% | 1012.2 hPa | 0 mm | 0 m/s | 0 W/m² | - |
| 1836274253 | 23.89° C | 72% | 1012.3 hPa | 0 mm | 0.89 m/s, 347° | 0 W/m² | - |
| 1836274098 | 23.89° C | 71% | 1012 hPa | 0 mm | 0.45 m/s, 348° | 0 W/m² | - |
| 1778048422 | 15° C | 80% | 1016 hPa | 0 mm | 0.89 m/s, 195° | 0 W/m² | - |
| 1778048118 | 15° C | 81% | 1015.7 hPa | 0 mm | 0.89 m/s, 268° | 0 W/m² | - |
| 1778047816 | 15° C | 81% | 1015.5 hPa | 0 mm | 0.89 m/s, 190° | 0 W/m² | - |
| 1778047514 | 15° C | 81% | 1015.6 hPa | 0 mm | 1.79 m/s, 138° | 0 W/m² | - |
| 1778047211 | 15° C | 81% | 1015.7 hPa | 0 mm | 0.89 m/s, 198° | 0 W/m² | - |
| 1778046908 | 15° C | 80% | 1015.7 hPa | 0 mm | 0.45 m/s, 196° | 0 W/m² | - |
| 1778046604 | 15° C | 80% | 1015.5 hPa | 0 mm | 0.89 m/s, 183° | 0 W/m² | - |
| 1778046301 | 15.56° C | 80% | 1015.4 hPa | 0 mm | 0 m/s | 0 W/m² | - |
| 1778045997 | 15.56° C | 80% | 1015.5 hPa | 0 mm | 0.45 m/s, 180° | 0 W/m² | - |
| 1778045695 | 15.56° C | 80% | 1015.5 hPa | 0 mm | 1.34 m/s, 248° | 0 W/m² | - |
| 1778045394 | 15° C | 80% | 1015.5 hPa | 0 mm | 1.34 m/s, 204° | 0 W/m² | - |
| 1778045092 | 15° C | 80% | 1015.4 hPa | 0 mm | 1.34 m/s, 146° | 0 W/m² | - |
| 1778044789 | 15° C | 80% | 1015.4 hPa | 0 mm | 0.89 m/s, 244° | 0 W/m² | - |
| 1778044486 | 15° C | 80% | 1015.4 hPa | 0 mm | 1.34 m/s, 173° | 0 W/m² | - |
| 1778044183 | 15° C | 80% | 1015.2 hPa | 0 mm | 1.34 m/s, 217° | 0 W/m² | - |
| 1778043880 | 15° C | 80% | 1014.9 hPa | 0 mm | 1.34 m/s, 184° | 0 W/m² | - |
| 1778043577 | 15° C | 80% | 1015 hPa | 0 mm | 1.34 m/s, 287° | 0 W/m² | - |
| 1778043274 | 15° C | 80% | 1014.9 hPa | 0 mm | 1.79 m/s, 233° | 0 W/m² | - |
| 1778042971 | 15.56° C | 80% | 1014.9 hPa | 0 mm | 1.79 m/s, 163° | 0 W/m² | - |
| 1778042669 | 15.56° C | 80% | 1014.9 hPa | 0 mm | 0 m/s | 0 W/m² | - |
* Rain latest hour (hover to see other rain measurements)
** Current wind speed in m/s (hover to see current wind gust speed)